THORAD DELTA 1 DEB, 8788

Orbit data source: Space-Track

THORAD DELTA 1 DEB, 8788 is space debris in SSO originally from a launch on Fri, 15 Nov 1974 UTC launched from the Air Force Western Test Range (AFWTR). Debris objects in space refer to the collection of defunct objects orbiting the Earth. Examples of debris include non-operational satellites, rocket bodies, and fragments generated from explosions, collisions, or faulty payload assembly.

Loading next visibility...
Identifier
8788, 1974-089DQ
Orbit
SSO
Country
Flag of USUS
Related business
Manufacturer
Unknown
Mission
Spacecraft
Bus & Motor
Unknown
Mass
Unknown
Launch date (UTC)
1974-11-15 (51 years ago)
Launch vehicle
Unknown
Launch site
Air Force Western Test Range (AFWTR)
Object type
Payload
Rocket body
Debris
Shape & HBR
Unknown shape, 0.2 m
Radar Cross Section
Small (<0.1 m²)

Expand to show TLE details & history
Last TLE update: 23 hours ago

TLE from 23 hours ago
0 THORAD DELTA 1 DEB
1 08788U 74089DQ  25288.00593032  .00000056  00000-0  74932-3 0  9995
2 08788 102.0932  24.3749 0071783 179.5395 356.0672 12.39809870304759
Epoch: 2025-10-15T00:08Z
TLE epoch observation values (Epoch: 2025-10-15T00:08:32.379Z)
Latitude
4.27103°
Longitude
179.3661°
Altitude
1,453.024 km
Speed
7.162 km/s
True Right ascension
13h 41m 08s
True Declination
4° 14' 52"
Sunlit
Object was in daylight at epoch
Visualization orbit readout
Latitude
Unknown
Longitude
Unknown
Altitude
Unknown
Speed
Unknown
Apparent Right ascension
Unknown
Apparent Declination
Unknown
Sunlit
N/A
Visualization observer readout
Local Sidereal Time
17:44:36
Azimuth
Unknown
Elevation
Unknown
Doppler factor
Unknown
Orbital elements
Apogee altitude
1,561.577 km
Perigee altitude
1,448.402 km
Semi-major axis
7,883.127 km
Eccentricity
0.00718
Inclination
102.0932°
RAAN
24.3749°
Arg. of periapsis
179.5395°
True anomaly
356.01027°
Mean anomaly
356.0672°
Eccentric anomaly
356.03879°
Mean motion
3.10095 °/min
Orbital period
116.09 mins
BSTAR
0.00074932
Loading maneuver chart data...
Computing Atmospheric mass density...

Documentation

Showing up to 5 results
|